Athens, OH

1:06 PM EST on November 12, 2019 (GMT -0500)
Ohio University

Weather History for KUNI - October, 2019

Change the Weather History Date:

Wednesday, October 23, 2019

  Actual Average (KPKB) Record (KPKB)
Temperature  
Mean Temperature 48 °F -  
Max Temperature 61 °F 63 °F 84 °F (1975)
Min Temperature 36 °F 42 °F 27 °F (1952)
Degree Days  
Heating Degree Days 16    
Moisture  
Dew Point 36 °F    
Average Humidity 68    
Maximum Humidity 100    
Minimum Humidity 31    
Precipitation  
Precipitation 0.00 in - - ()
Sea Level Pressure  
Sea Level Pressure 30.10 in    
Wind  
Wind Speed 3 mph (SW)    
Max Wind Speed 13 mph    
Max Gust Speed 21 mph    
Visibility 10 miles    
Events      
Averages and records for this station are not official NWS values.
T = Trace of Precipitation, MM = Missing Value Source: NWS Daily Summary

Daily Weather History Graph

Daily Weather History Graph

Search for Another Location

Airport or City:

Astronomy

Oct. 23, 2019 Rise Set
Actual Time 7:46 AM EDT 6:39 PM EDT
Civil Twilight 7:19 AM EDT 7:06 PM EDT
Nautical Twilight 6:48 AM EDT 7:37 PM EDT
Astronomical Twilight 6:17 AM EDT 8:08 PM EDT
Moon 2:06 AM EDT (10/23) 4:26 PM EDT (10/23)
Length of Visible Light 11h 47m
Length of Day
10h 52m
Waning Crescent, 27% of the Moon is Illuminated
Oct 23
Waning Crescent
Oct 27
New
Nov 4
First Quarter
Nov 12
Full
Nov 19
Last Quarter

Hourly Weather History & Observations

Time (EDT) Temp. Windchill Dew Point Humidity Pressure Visibility Wind Dir Wind Speed Gust Speed Precip Events Conditions
12:15 AM 45.3 °F - 41.5 °F 87% 29.94 in 10.0 mi Calm Calm - N/A   Scattered Clouds
12:35 AM 45.1 °F - 41.9 °F 88% 29.94 in 10.0 mi Calm Calm - N/A   Clear
12:55 AM 45.3 °F - 40.6 °F 84% 29.95 in 10.0 mi Calm Calm - N/A   Clear
1:15 AM 47.1 °F - 41.0 °F 79% 29.94 in 10.0 mi Calm Calm - N/A   Scattered Clouds
1:55 AM 45.5 °F - 40.3 °F 82% 29.95 in 10.0 mi Calm Calm - N/A   Clear
2:15 AM 43.9 °F 42.3 °F 40.8 °F 89% 29.96 in 10.0 mi West 3.5 mph - N/A   Clear
2:35 AM 43.3 °F - 41.4 °F 93% 29.96 in 10.0 mi Calm Calm - N/A   Clear
2:55 AM 43.0 °F 41.3 °F 41.0 °F 93% 29.97 in 10.0 mi WSW 3.5 mph - N/A   Clear
3:15 AM 42.8 °F - 40.8 °F 93% 29.97 in 10.0 mi Calm Calm - N/A   Clear
3:35 AM 43.9 °F - 40.1 °F 87% 29.98 in 10.0 mi Calm Calm - N/A   Clear
3:55 AM 43.7 °F - 40.1 °F 87% 29.98 in 10.0 mi Calm Calm - N/A   Clear
4:15 AM 40.8 °F - 40.1 °F 97% 29.99 in 10.0 mi Calm Calm - N/A   Clear
4:35 AM 40.3 °F - 40.3 °F 100% 30.00 in 10.0 mi Calm Calm - N/A   Clear
4:55 AM 40.6 °F - 40.6 °F 100% 30.00 in 10.0 mi Calm Calm - N/A   Clear
5:15 AM 39.4 °F - 39.4 °F 100% 30.00 in 10.0 mi Calm Calm - N/A   Clear
5:35 AM 39.7 °F - 39.7 °F 100% 30.01 in 10.0 mi Calm Calm - N/A   Clear
5:55 AM 39.2 °F - 39.2 °F 100% 30.03 in 10.0 mi Calm Calm - N/A   Clear
6:15 AM 39.0 °F - 39.0 °F 100% 30.02 in 10.0 mi Calm Calm - N/A   Clear
6:35 AM 38.8 °F - 38.8 °F 100% 30.03 in 10.0 mi Calm Calm - N/A   Clear
6:55 AM 36.7 °F - 36.7 °F 100% 30.04 in 10.0 mi Calm Calm - N/A   Clear
7:15 AM 37.8 °F - 37.8 °F 100% 30.06 in 10.0 mi Calm Calm - N/A   Clear
7:35 AM 38.7 °F - 38.7 °F 100% 30.06 in 10.0 mi Calm Calm - N/A   Clear
7:55 AM 37.0 °F - 37.0 °F 100% 30.06 in 10.0 mi Calm Calm - N/A   Clear
8:15 AM 38.5 °F - 38.5 °F 100% 30.07 in 10.0 mi Calm Calm - N/A   Clear
8:35 AM 39.6 °F - 39.6 °F 100% 30.09 in 10.0 mi Calm Calm - N/A   Clear
8:55 AM 43.5 °F - 42.1 °F 95% 30.09 in 10.0 mi Calm Calm - N/A   Clear
9:15 AM 45.5 °F 42.5 °F 41.7 °F 87% 30.10 in 10.0 mi SW 5.8 mph - N/A   Clear
9:35 AM 47.1 °F - 41.2 °F 80% 30.11 in 10.0 mi SW 9.2 mph - N/A   Clear
9:55 AM 48.4 °F - 40.1 °F 73% 30.12 in 10.0 mi WSW 10.4 mph - N/A   Clear
10:15 AM 49.5 °F - 39.7 °F 69% 30.13 in 10.0 mi WSW 9.2 mph - N/A   Clear
10:35 AM 51.1 °F - 38.5 °F 62% 30.14 in 10.0 mi WSW 12.7 mph - N/A   Clear
10:55 AM 52.0 °F - 37.2 °F 57% 30.14 in 10.0 mi West 10.4 mph 16.1 mph N/A   Clear
11:15 AM 53.8 °F - 35.4 °F 50% 30.14 in 10.0 mi West 9.2 mph 17.3 mph N/A   Clear
11:35 AM 54.5 °F - 33.3 °F 45% 30.15 in 10.0 mi West 12.7 mph 16.1 mph N/A   Clear
11:55 AM 55.9 °F - 32.7 °F 41% 30.16 in 10.0 mi WSW 12.7 mph - N/A   Clear
12:15 PM 56.7 °F - 31.6 °F 39% 30.17 in 10.0 mi SW 11.5 mph - N/A   Clear
12:35 PM 57.2 °F - 30.7 °F 37% 30.17 in 10.0 mi West 11.5 mph 20.7 mph N/A   Clear
12:55 PM 58.1 °F - 31.3 °F 36% 30.16 in 10.0 mi SW 9.2 mph 16.1 mph N/A   Clear
1:15 PM 58.8 °F - 31.1 °F 35% 30.16 in 10.0 mi West 12.7 mph 18.4 mph N/A   Clear
1:35 PM 59.2 °F - 31.1 °F 35% 30.16 in 10.0 mi West 8.1 mph - N/A   Clear
1:55 PM 59.7 °F - 30.6 °F 33% 30.15 in 10.0 mi West 8.1 mph - N/A   Clear
2:15 PM 60.3 °F - 30.6 °F 33% 30.15 in 10.0 mi WSW 11.5 mph - N/A   Clear
2:35 PM 60.1 °F - 30.6 °F 33% 30.15 in 10.0 mi SSW 8.1 mph - N/A   Clear
2:55 PM 60.8 °F - 30.4 °F 32% 30.14 in 10.0 mi West 6.9 mph - N/A   Clear
3:15 PM 61.3 °F - 30.4 °F 31% 30.14 in 10.0 mi WSW 10.4 mph - N/A   Clear
3:35 PM 61.3 °F - 30.4 °F 31% 30.14 in 10.0 mi WSW 12.7 mph - N/A   Clear
3:55 PM 61.7 °F - 31.1 °F 32% 30.15 in 10.0 mi West 11.5 mph - N/A   Clear
4:15 PM 61.2 °F - 30.2 °F 31% 30.15 in 10.0 mi SW 8.1 mph - N/A   Clear
4:35 PM 61.3 °F - 30.0 °F 31% 30.15 in 10.0 mi WSW 9.2 mph - N/A   Clear
4:55 PM 61.2 °F - 30.2 °F 31% 30.14 in 10.0 mi South 3.5 mph - N/A   Clear
5:15 PM 61.0 °F - 29.7 °F 31% 30.14 in 10.0 mi Calm Calm - N/A   Clear
5:35 PM 60.6 °F - 31.5 °F 33% 30.15 in 10.0 mi SW 8.1 mph - N/A   Clear
5:55 PM 59.7 °F - 30.7 °F 33% 30.14 in 10.0 mi SSW 3.5 mph - N/A   Clear
6:15 PM 58.3 °F - 30.9 °F 35% 30.15 in 10.0 mi South 4.6 mph - N/A   Clear
6:35 PM 56.7 °F - 31.8 °F 39% 30.16 in 10.0 mi Calm Calm - N/A   Clear
6:55 PM 54.1 °F - 32.9 °F 45% 30.16 in 10.0 mi South 4.6 mph - N/A   Clear
7:15 PM 52.0 °F - 34.3 °F 51% 30.16 in 10.0 mi South 3.5 mph - N/A   Clear
7:35 PM 50.0 °F - 34.9 °F 56% 30.16 in 10.0 mi SSE 5.8 mph - N/A   Clear
7:55 PM 50.9 °F - 34.3 °F 53% 30.17 in 10.0 mi South 3.5 mph - N/A   Clear
8:15 PM 50.7 °F - 34.0 °F 53% 30.17 in 10.0 mi South 5.8 mph - N/A   Clear
8:35 PM 46.4 °F - 36.1 °F 67% 30.17 in 10.0 mi Calm Calm - N/A   Clear
8:55 PM 45.5 °F - 36.3 °F 70% 30.17 in 10.0 mi Calm Calm - N/A   Clear
9:15 PM 44.4 °F - 36.7 °F 74% 30.18 in 10.0 mi Calm Calm - N/A   Clear
9:35 PM 42.1 °F - 36.7 °F 81% 30.19 in 10.0 mi Calm Calm - N/A   Clear
9:55 PM 43.2 °F - 37.2 °F 80% 30.19 in 10.0 mi Calm Calm - N/A   Clear
10:15 PM 42.6 °F - 37.2 °F 81% 30.20 in 10.0 mi Calm Calm - N/A   Clear
10:35 PM 41.9 °F - 37.4 °F 84% 30.20 in 10.0 mi Calm Calm - N/A   Clear
10:55 PM 39.7 °F - 37.4 °F 91% 30.21 in 10.0 mi Calm Calm - N/A   Clear
11:15 PM 42.8 °F - 35.6 °F 76% 30.21 in 10.0 mi Calm Calm - N/A   Clear
11:35 PM 42.1 °F - 35.8 °F 78% 30.21 in 10.0 mi Calm Calm - N/A   Clear